CTV631 WAYY-WAJJ

Flight info

Callsign CTV631
Flight time 1h 12m
Altitude 27000
Route OVGOD T17 ANLEP
Aircraft A320/M-SDE3FGHIRWY/LB1

Departure

Time 2026-04-24 12:09
Airport Mozes Kilangin Airport (WAYY)

Arrival

Time 2026-04-24 13:21
Airport Dortheys Hiyo Eluay International Airport (WAJJ)
Time Latitude Longitude Altitude Speed Heading
2026-04-24 11:40 -4.52977 136.88270 110 ft 0 kts 211°
2026-04-24 12:00 -4.52974 136.88271 110 ft 3 kts 211°
2026-04-24 12:00 -4.52951 136.88284 110 ft 4 kts 202°
2026-04-24 12:01 -4.52925 136.88292 110 ft 4 kts 183°
2026-04-24 12:01 -4.52901 136.88288 110 ft 3 kts 128°
2026-04-24 12:01 -4.52897 136.88281 110 ft 0 kts 122°
2026-04-24 12:04 -4.52898 136.88284 110 ft 1 kts 122°
2026-04-24 12:04 -4.52906 136.88296 109 ft 3 kts 122°
2026-04-24 12:04 -4.52921 136.88320 109 ft 5 kts 122°
2026-04-24 12:04 -4.52940 136.88359 110 ft 7 kts 98°
2026-04-24 12:05 -4.52910 136.88399 109 ft 8 kts 36°
2026-04-24 12:05 -4.52855 136.88434 110 ft 10 kts 32°
2026-04-24 12:05 -4.52817 136.88479 110 ft 9 kts 83°
2026-04-24 12:05 -4.52850 136.88549 110 ft 13 kts 122°
2026-04-24 12:06 -4.52910 136.88645 110 ft 19 kts 122°
2026-04-24 12:06 -4.52984 136.88765 109 ft 22 kts 122°
2026-04-24 12:06 -4.53070 136.88905 108 ft 25 kts 122°
2026-04-24 12:06 -4.53161 136.89050 109 ft 22 kts 122°
2026-04-24 12:07 -4.53248 136.89189 108 ft 25 kts 122°
2026-04-24 12:07 -4.53341 136.89338 110 ft 26 kts 122°
2026-04-24 12:07 -4.53435 136.89491 109 ft 22 kts 122°
2026-04-24 12:07 -4.53486 136.89582 111 ft 9 kts 103°
2026-04-24 12:08 -4.53489 136.89645 111 ft 6 kts 111°
2026-04-24 12:08 -4.53524 136.89650 111 ft 4 kts 218°
2026-04-24 12:08 -4.53517 136.89623 111 ft 6 kts 300°
2026-04-24 12:08 -4.53398 136.89431 110 ft 67 kts 302°
2026-04-24 12:09 -4.53037 136.88849 109 ft 126 kts 302°
2026-04-24 12:09 -4.52490 136.87976 202 ft 161 kts 302°
2026-04-24 12:09 -4.51916 136.87071 878 ft 152 kts 302°
2026-04-24 12:09 -4.51343 136.86156 1381 ft 157 kts 302°
2026-04-24 12:10 -4.50778 136.85229 1936 ft 159 kts 301°
2026-04-24 12:10 -4.50151 136.84208 2133 ft 183 kts 302°
2026-04-24 12:10 -4.49437 136.83065 2398 ft 200 kts 302°
2026-04-24 12:11 -4.47849 136.80499 3168 ft 227 kts 302°
2026-04-24 12:11 -4.47016 136.79150 3931 ft 229 kts 302°
2026-04-24 12:11 -4.46166 136.77779 4592 ft 236 kts 302°
2026-04-24 12:11 -4.45288 136.76361 5242 ft 242 kts 300°
2026-04-24 12:12 -4.44705 136.74772 5949 ft 246 kts 277°
2026-04-24 12:12 -4.44782 136.73058 6660 ft 250 kts 255°
2026-04-24 12:12 -4.45509 136.71481 7376 ft 252 kts 233°
2026-04-24 12:12 -4.46793 136.70278 8088 ft 256 kts 210°
2026-04-24 12:13 -4.48462 136.69657 8772 ft 260 kts 187°
2026-04-24 12:13 -4.50265 136.69748 9450 ft 263 kts 163°
2026-04-24 12:13 -4.51921 136.70520 10121 ft 265 kts 147°
2026-04-24 12:13 -4.53502 136.71497 10798 ft 268 kts 147°
2026-04-24 12:14 -4.55098 136.72487 11450 ft 272 kts 147°
2026-04-24 12:14 -4.56693 136.73474 12089 ft 274 kts 147°
2026-04-24 12:14 -4.58384 136.74516 12304 ft 297 kts 147°
2026-04-24 12:14 -4.60209 136.75639 12439 ft 319 kts 147°
2026-04-24 12:15 -4.62161 136.76843 12569 ft 339 kts 147°
2026-04-24 12:15 -4.64217 136.78109 12856 ft 352 kts 147°
2026-04-24 12:15 -4.66307 136.79427 13377 ft 357 kts 143°
2026-04-24 12:15 -4.68152 136.81096 13944 ft 359 kts 129°
2026-04-24 12:16 -4.69567 136.83154 14498 ft 360 kts 116°
2026-04-24 12:16 -4.70475 136.85491 15070 ft 361 kts 103°
2026-04-24 12:16 -4.70996 136.87960 15632 ft 363 kts 101°
2026-04-24 12:16 -4.71508 136.90449 16179 ft 366 kts 101°
2026-04-24 12:17 -4.72028 136.92950 16731 ft 368 kts 101°
2026-04-24 12:17 -4.72552 136.95470 17258 ft 370 kts 101°
2026-04-24 12:17 -4.73081 136.98006 17795 ft 373 kts 101°
2026-04-24 12:17 -4.73612 137.00557 18316 ft 375 kts 101°
2026-04-24 12:18 -4.74142 137.03125 18829 ft 378 kts 101°
2026-04-24 12:18 -4.74676 137.05713 19318 ft 381 kts 101°
2026-04-24 12:18 -4.75217 137.08327 19824 ft 384 kts 101°
2026-04-24 12:18 -4.75764 137.10956 20332 ft 387 kts 101°
2026-04-24 12:19 -4.76318 137.13603 20798 ft 390 kts 101°
2026-04-24 12:19 -4.76875 137.16275 21276 ft 393 kts 101°
2026-04-24 12:19 -4.77431 137.18967 21724 ft 396 kts 101°
2026-04-24 12:19 -4.77981 137.21638 22164 ft 398 kts 101°
2026-04-24 12:20 -4.78542 137.24370 22609 ft 401 kts 101°
2026-04-24 12:20 -4.78959 137.27140 23038 ft 404 kts 92°
2026-04-24 12:20 -4.78798 137.29957 23433 ft 407 kts 80°
2026-04-24 12:20 -4.78015 137.32690 23823 ft 411 kts 67°
2026-04-24 12:21 -4.76643 137.35207 24200 ft 414 kts 55°
2026-04-24 12:21 -4.74784 137.37428 24583 ft 417 kts 49°
2026-04-24 12:21 -4.72835 137.39600 24967 ft 420 kts 49°
2026-04-24 12:21 -4.70879 137.41783 25324 ft 422 kts 49°
2026-04-24 12:22 -4.68909 137.43983 25671 ft 425 kts 49°
2026-04-24 12:22 -4.66929 137.46195 26006 ft 427 kts 49°
2026-04-24 12:22 -4.64940 137.48417 26331 ft 430 kts 49°
2026-04-24 12:22 -4.62939 137.50655 26642 ft 432 kts 49°
2026-04-24 12:23 -4.60929 137.52904 26906 ft 434 kts 49°
2026-04-24 12:23 -4.58923 137.55150 26970 ft 432 kts 49°
2026-04-24 12:23 -4.56920 137.57388 26976 ft 442 kts 49°
2026-04-24 12:23 -4.54846 137.59707 26977 ft 451 kts 49°
2026-04-24 12:24 -4.52736 137.62066 26974 ft 458 kts 49°
2026-04-24 12:24 -4.50602 137.64449 26974 ft 460 kts 49°
2026-04-24 12:24 -4.48465 137.66841 26976 ft 461 kts 49°
2026-04-24 12:24 -4.46324 137.69236 26974 ft 461 kts 49°
2026-04-24 12:25 -4.44181 137.71627 26974 ft 461 kts 49°
2026-04-24 12:25 -4.42036 137.74020 26973 ft 462 kts 48°
2026-04-24 12:25 -4.39673 137.76220 26972 ft 466 kts 37°
2026-04-24 12:25 -4.36897 137.77916 26978 ft 470 kts 27°
2026-04-24 12:26 -4.33976 137.79381 26980 ft 470 kts 27°
2026-04-24 12:26 -4.31046 137.80848 26986 ft 470 kts 27°
2026-04-24 12:26 -4.28128 137.82310 26979 ft 469 kts 27°
2026-04-24 12:26 -4.25249 137.83757 26972 ft 469 kts 27°
2026-04-24 12:27 -4.22294 137.85247 26964 ft 470 kts 27°
2026-04-24 12:27 -4.19375 137.86725 26950 ft 470 kts 27°
2026-04-24 12:27 -4.16494 137.88187 26949 ft 471 kts 27°
2026-04-24 12:27 -4.13567 137.89671 26943 ft 472 kts 27°
2026-04-24 12:28 -4.10627 137.91156 26969 ft 475 kts 27°
2026-04-24 12:28 -4.07669 137.92646 26976 ft 478 kts 27°
2026-04-24 12:28 -4.04691 137.94147 26976 ft 479 kts 27°
2026-04-24 12:28 -4.01716 137.95648 26975 ft 479 kts 27°
2026-04-24 12:29 -3.98779 137.97219 26970 ft 478 kts 34°
2026-04-24 12:29 -3.96195 137.99295 26974 ft 477 kts 46°
2026-04-24 12:29 -3.94146 138.01885 26976 ft 474 kts 60°
2026-04-24 12:29 -3.92614 138.04800 26977 ft 473 kts 64°
2026-04-24 12:30 -3.91145 138.07754 26973 ft 474 kts 64°
2026-04-24 12:30 -3.89670 138.10710 26977 ft 475 kts 64°
2026-04-24 12:30 -3.88195 138.13664 26973 ft 474 kts 64°
2026-04-24 12:30 -3.86718 138.16614 26980 ft 474 kts 64°
2026-04-24 12:31 -3.85241 138.19558 26980 ft 473 kts 64°
2026-04-24 12:31 -3.83760 138.22506 26976 ft 474 kts 64°
2026-04-24 12:31 -3.82279 138.25454 26980 ft 474 kts 64°
2026-04-24 12:31 -3.80801 138.28409 26975 ft 475 kts 64°
2026-04-24 12:32 -3.79326 138.31368 26972 ft 475 kts 64°
2026-04-24 12:32 -3.77851 138.34322 26982 ft 475 kts 64°
2026-04-24 12:32 -3.76372 138.37278 26983 ft 474 kts 64°
2026-04-24 12:32 -3.74895 138.40231 26990 ft 474 kts 64°
2026-04-24 12:33 -3.73421 138.43180 27000 ft 473 kts 64°
2026-04-24 12:33 -3.71954 138.46120 27001 ft 471 kts 64°
2026-04-24 12:33 -3.70489 138.49048 27001 ft 470 kts 64°
2026-04-24 12:33 -3.69047 138.51931 27001 ft 469 kts 64°
2026-04-24 12:34 -3.67590 138.54844 26996 ft 468 kts 64°
2026-04-24 12:34 -3.66131 138.57760 26994 ft 468 kts 64°
2026-04-24 12:34 -3.64673 138.60667 26995 ft 467 kts 64°
2026-04-24 12:34 -3.63211 138.63567 26989 ft 467 kts 64°
2026-04-24 12:35 -3.61748 138.66473 26989 ft 467 kts 64°
2026-04-24 12:35 -3.60291 138.69378 26994 ft 467 kts 64°
2026-04-24 12:35 -3.58835 138.72284 27008 ft 466 kts 64°
2026-04-24 12:35 -3.57384 138.75183 27014 ft 466 kts 64°
2026-04-24 12:36 -3.55936 138.78082 27008 ft 465 kts 64°
2026-04-24 12:36 -3.54488 138.80982 27010 ft 465 kts 64°
2026-04-24 12:36 -3.53042 138.83882 27000 ft 465 kts 64°
2026-04-24 12:36 -3.51595 138.86775 26996 ft 466 kts 64°
2026-04-24 12:37 -3.50139 138.89676 26993 ft 466 kts 64°
2026-04-24 12:37 -3.48683 138.92574 26997 ft 466 kts 64°
2026-04-24 12:37 -3.47231 138.95467 27020 ft 465 kts 64°
2026-04-24 12:37 -3.45783 138.98348 27023 ft 463 kts 64°
2026-04-24 12:38 -3.44338 139.01226 27030 ft 462 kts 64°
2026-04-24 12:38 -3.42898 139.04099 27034 ft 460 kts 64°
2026-04-24 12:38 -3.41467 139.06957 27033 ft 459 kts 64°
2026-04-24 12:39 -3.36855 139.15279 27027 ft 457 kts 60°
2026-04-24 12:39 -3.35224 139.18002 27030 ft 456 kts 60°
2026-04-24 12:39 -3.33596 139.20719 27032 ft 454 kts 60°
2026-04-24 12:40 -3.31989 139.23434 27031 ft 453 kts 60°
2026-04-24 12:40 -3.30404 139.26150 27029 ft 452 kts 61°
2026-04-24 12:40 -3.28834 139.28869 27027 ft 451 kts 61°
2026-04-24 12:40 -3.27272 139.31588 27023 ft 451 kts 61°
2026-04-24 12:41 -3.25711 139.34307 27021 ft 450 kts 61°
2026-04-24 12:41 -3.24150 139.37023 27017 ft 450 kts 61°
2026-04-24 12:41 -3.22587 139.39735 27014 ft 450 kts 61°
2026-04-24 12:41 -3.21024 139.42444 27011 ft 449 kts 61°
2026-04-24 12:42 -3.19460 139.45147 27006 ft 449 kts 61°
2026-04-24 12:42 -3.17895 139.47852 27003 ft 449 kts 61°
2026-04-24 12:42 -3.16330 139.50558 27001 ft 449 kts 61°
2026-04-24 12:42 -3.14767 139.53264 26998 ft 449 kts 61°
2026-04-24 12:43 -3.13201 139.55972 26973 ft 450 kts 61°
2026-04-24 12:43 -3.11635 139.58684 26333 ft 450 kts 61°
2026-04-24 12:43 -3.10069 139.61399 25623 ft 451 kts 60°
2026-04-24 12:43 -3.08501 139.64113 24923 ft 451 kts 60°
2026-04-24 12:44 -3.06927 139.66835 24216 ft 453 kts 60°
2026-04-24 12:44 -3.05348 139.69568 23520 ft 455 kts 59°
2026-04-24 12:44 -3.03759 139.72318 22819 ft 458 kts 60°
2026-04-24 12:44 -3.02162 139.75082 22112 ft 460 kts 60°
2026-04-24 12:45 -3.00556 139.77858 21415 ft 462 kts 60°
2026-04-24 12:45 -2.98957 139.80620 20712 ft 454 kts 60°
2026-04-24 12:45 -2.97388 139.83332 20011 ft 446 kts 60°
2026-04-24 12:45 -2.95845 139.86001 19314 ft 442 kts 60°
2026-04-24 12:46 -2.94309 139.88658 18613 ft 441 kts 60°
2026-04-24 12:46 -2.92770 139.91320 17903 ft 442 kts 60°
2026-04-24 12:46 -2.91242 139.93961 17204 ft 434 kts 60°
2026-04-24 12:46 -2.89740 139.96549 16502 ft 427 kts 60°
2026-04-24 12:47 -2.88279 139.99069 15806 ft 422 kts 60°
2026-04-24 12:47 -2.86816 140.01599 15110 ft 418 kts 60°
2026-04-24 12:47 -2.85370 140.04109 14403 ft 415 kts 61°
2026-04-24 12:47 -2.83935 140.06604 13705 ft 412 kts 61°
2026-04-24 12:48 -2.82506 140.09081 13006 ft 410 kts 60°
2026-04-24 12:48 -2.81082 140.11537 12300 ft 407 kts 60°
2026-04-24 12:48 -2.79668 140.13970 11601 ft 403 kts 60°
2026-04-24 12:48 -2.78276 140.16365 11172 ft 387 kts 61°
2026-04-24 12:49 -2.76980 140.18593 10978 ft 355 kts 60°
2026-04-24 12:49 -2.75782 140.20658 10824 ft 336 kts 60°
2026-04-24 12:49 -2.74634 140.22640 10737 ft 322 kts 61°
2026-04-24 12:49 -2.73535 140.24537 10650 ft 309 kts 61°
2026-04-24 12:50 -2.72481 140.26359 10582 ft 297 kts 61°
2026-04-24 12:50 -2.71465 140.28119 10502 ft 287 kts 61°
2026-04-24 12:50 -2.70479 140.29824 10339 ft 280 kts 61°
2026-04-24 12:50 -2.69519 140.31487 10184 ft 272 kts 61°
2026-04-24 12:51 -2.68583 140.33109 10033 ft 267 kts 61°
2026-04-24 12:51 -2.67656 140.34710 9875 ft 265 kts 61°
2026-04-24 12:51 -2.66730 140.36304 9734 ft 265 kts 61°
2026-04-24 12:51 -2.65807 140.37897 9579 ft 264 kts 61°
2026-04-24 12:52 -2.64889 140.39486 9426 ft 263 kts 61°
2026-04-24 12:52 -2.64283 140.40535 9328 ft 263 kts 61°
2026-04-24 12:52 -2.63060 140.42651 9124 ft 263 kts 61°
2026-04-24 12:52 -2.62454 140.43697 9025 ft 262 kts 61°
2026-04-24 12:53 -2.61244 140.45781 8813 ft 261 kts 62°
2026-04-24 12:53 -2.60343 140.47337 8678 ft 255 kts 62°
2026-04-24 12:53 -2.59472 140.48850 8556 ft 248 kts 64°
2026-04-24 12:53 -2.58921 140.50466 8523 ft 246 kts 82°
2026-04-24 12:54 -2.58851 140.51614 8348 ft 244 kts 95°
2026-04-24 12:54 -2.59446 140.53746 7951 ft 241 kts 118°
2026-04-24 12:54 -2.60072 140.54692 7741 ft 241 kts 126°
2026-04-24 12:54 -2.61079 140.56032 7419 ft 241 kts 126°
2026-04-24 12:55 -2.62075 140.57373 7112 ft 240 kts 126°
2026-04-24 12:55 -2.63072 140.58721 6790 ft 243 kts 125°
2026-04-24 12:55 -2.64070 140.60072 6464 ft 245 kts 126°
2026-04-24 12:55 -2.65082 140.61441 6152 ft 246 kts 126°
2026-04-24 12:56 -2.66098 140.62817 5836 ft 246 kts 126°
2026-04-24 12:56 -2.67114 140.64190 5517 ft 245 kts 126°
2026-04-24 12:56 -2.68126 140.65559 5196 ft 245 kts 126°
2026-04-24 12:56 -2.69136 140.66924 4877 ft 244 kts 126°
2026-04-24 12:57 -2.70145 140.68288 4566 ft 243 kts 126°
2026-04-24 12:57 -2.71155 140.69654 4239 ft 244 kts 126°
2026-04-24 12:57 -2.72154 140.71002 4071 ft 237 kts 126°
2026-04-24 12:57 -2.73111 140.72287 4055 ft 223 kts 126°
2026-04-24 12:58 -2.74027 140.73512 4060 ft 219 kts 126°
2026-04-24 12:58 -2.74936 140.74728 4054 ft 216 kts 126°
2026-04-24 12:58 -2.75840 140.75937 4059 ft 217 kts 126°
2026-04-24 12:58 -2.76749 140.77150 4050 ft 216 kts 128°
2026-04-24 12:59 -2.77898 140.78114 4061 ft 219 kts 152°
2026-04-24 12:59 -2.79374 140.78505 4061 ft 223 kts 178°
2026-04-24 12:59 -2.80892 140.78178 4063 ft 228 kts 205°
2026-04-24 12:59 -2.82121 140.77169 4058 ft 233 kts 233°
2026-04-24 13:00 -2.82746 140.75676 4061 ft 237 kts 262°
2026-04-24 13:00 -2.82583 140.74050 4051 ft 237 kts 291°
2026-04-24 13:00 -2.81672 140.72695 4058 ft 237 kts 321°
2026-04-24 13:00 -2.80263 140.71935 4061 ft 233 kts 349°
2026-04-24 13:01 -2.78650 140.71913 4064 ft 229 kts 16°
2026-04-24 13:01 -2.77114 140.72332 4056 ft 226 kts 20°
2026-04-24 13:01 -2.75602 140.72738 4043 ft 228 kts
2026-04-24 13:01 -2.74004 140.72597 3940 ft 238 kts 341°
2026-04-24 13:02 -2.72659 140.71684 3813 ft 236 kts 311°
2026-04-24 13:02 -2.71639 140.70391 3762 ft 237 kts 308°
2026-04-24 13:02 -2.70647 140.69066 3557 ft 237 kts 307°
2026-04-24 13:02 -2.69658 140.67730 3211 ft 241 kts 308°
2026-04-24 13:03 -2.68656 140.66378 2884 ft 241 kts 307°
2026-04-24 13:03 -2.67680 140.65058 2770 ft 231 kts 307°
2026-04-24 13:03 -2.66741 140.63790 2618 ft 223 kts 308°
2026-04-24 13:03 -2.65833 140.62566 2462 ft 215 kts 308°
2026-04-24 13:04 -2.64950 140.61378 2289 ft 210 kts 307°
2026-04-24 13:04 -2.64087 140.60220 2112 ft 205 kts 307°
2026-04-24 13:04 -2.63247 140.59092 1936 ft 201 kts 307°
2026-04-24 13:04 -2.62412 140.57971 1717 ft 201 kts 306°
2026-04-24 13:05 -2.61829 140.56722 1466 ft 199 kts 275°
2026-04-24 13:05 -2.61930 140.55354 1364 ft 198 kts 260°
2026-04-24 13:05 -2.62143 140.54002 1362 ft 198 kts 272°
2026-04-24 13:05 -2.61761 140.52703 1369 ft 197 kts 298°
2026-04-24 13:06 -2.61074 140.51521 1364 ft 197 kts 302°
2026-04-24 13:06 -2.60342 140.50363 1368 ft 196 kts 302°
2026-04-24 13:06 -2.59634 140.49254 1369 ft 181 kts 302°
2026-04-24 13:06 -2.58991 140.48254 1269 ft 159 kts 304°
2026-04-24 13:07 -2.58155 140.47649 1191 ft 147 kts 351°
2026-04-24 13:07 -2.57207 140.47905 1120 ft 146 kts 42°
2026-04-24 13:07 -2.56762 140.48792 1068 ft 147 kts 83°
2026-04-24 13:07 -2.56713 140.49816 728 ft 149 kts 90°
2026-04-24 13:08 -2.57043 140.50759 400 ft 145 kts 125°
2026-04-24 13:08 -2.57651 140.51539 580 ft 140 kts 129°
2026-04-24 13:08 -2.58294 140.52309 1159 ft 150 kts 130°
2026-04-24 13:09 -2.59778 140.54146 2089 ft 193 kts 129°
2026-04-24 13:09 -2.60657 140.55239 2415 ft 213 kts 129°
2026-04-24 13:09 -2.61611 140.56426 2960 ft 222 kts 129°
2026-04-24 13:09 -2.62602 140.57631 3708 ft 227 kts 128°
2026-04-24 13:10 -2.63643 140.58835 4653 ft 229 kts 129°
2026-04-24 13:10 -2.64702 140.60033 5494 ft 229 kts 128°
2026-04-24 13:10 -2.65751 140.61214 5631 ft 226 kts 129°
2026-04-24 13:10 -2.66775 140.62377 5313 ft 225 kts 129°
2026-04-24 13:11 -2.67796 140.63547 5049 ft 222 kts 129°
2026-04-24 13:11 -2.68794 140.64707 4780 ft 218 kts 129°
2026-04-24 13:11 -2.69765 140.65859 4513 ft 215 kts 129°
2026-04-24 13:11 -2.70715 140.67008 4219 ft 214 kts 129°
2026-04-24 13:12 -2.71655 140.68144 4066 ft 212 kts 129°
2026-04-24 13:12 -2.72603 140.69287 4063 ft 215 kts 129°
2026-04-24 13:12 -2.73520 140.70467 4061 ft 214 kts 117°
2026-04-24 13:12 -2.73826 140.71896 4062 ft 214 kts 83°
2026-04-24 13:13 -2.73241 140.73257 4060 ft 218 kts 49°
2026-04-24 13:13 -2.71949 140.74029 4463 ft 219 kts 11°
2026-04-24 13:13 -2.70369 140.73978 4770 ft 241 kts 345°
2026-04-24 13:13 -2.68945 140.73114 4628 ft 240 kts 311°
2026-04-24 13:14 -2.68189 140.71670 4338 ft 235 kts 278°
2026-04-24 13:14 -2.68318 140.70083 4096 ft 227 kts 246°
2026-04-24 13:14 -2.68837 140.68555 3796 ft 236 kts 260°
2026-04-24 13:14 -2.68760 140.66940 3553 ft 233 kts 286°
2026-04-24 13:15 -2.68037 140.65501 3306 ft 232 kts 308°
2026-04-24 13:15 -2.67063 140.64213 3023 ft 232 kts 308°
2026-04-24 13:15 -2.66110 140.62938 2845 ft 225 kts 308°
2026-04-24 13:15 -2.65199 140.61715 2652 ft 219 kts 308°
2026-04-24 13:16 -2.64295 140.60502 2450 ft 216 kts 308°
2026-04-24 13:16 -2.63407 140.59311 2254 ft 211 kts 307°
2026-04-24 13:16 -2.62546 140.58135 2032 ft 210 kts 302°
2026-04-24 13:16 -2.62122 140.56763 1799 ft 207 kts 274°
2026-04-24 13:17 -2.62114 140.55340 1622 ft 201 kts 268°
2026-04-24 13:17 -2.61956 140.53974 1556 ft 197 kts 293°
2026-04-24 13:17 -2.61318 140.52758 1561 ft 197 kts 302°
2026-04-24 13:17 -2.60544 140.51631 1581 ft 192 kts 306°
2026-04-24 13:18 -2.59797 140.50613 1569 ft 171 kts 307°
2026-04-24 13:18 -2.59130 140.49711 1540 ft 155 kts 307°
2026-04-24 13:18 -2.58506 140.48869 1572 ft 148 kts 306°
2026-04-24 13:18 -2.57900 140.48052 1514 ft 145 kts 307°
2026-04-24 13:19 -2.57303 140.47247 1454 ft 144 kts 307°
2026-04-24 13:19 -2.56612 140.46538 1372 ft 144 kts 337°
2026-04-24 13:19 -2.55651 140.46556 1363 ft 144 kts 29°
2026-04-24 13:19 -2.55075 140.47343 1357 ft 147 kts 80°
2026-04-24 13:20 -2.55295 140.48311 1098 ft 146 kts 122°
2026-04-24 13:20 -2.55849 140.49157 826 ft 145 kts 125°
2026-04-24 13:20 -2.56442 140.49968 572 ft 144 kts 127°
2026-04-24 13:20 -2.57034 140.50759 366 ft 144 kts 127°
2026-04-24 13:21 -2.57603 140.51517 301 ft 121 kts 126°
2026-04-24 13:21 -2.58008 140.52062 300 ft 73 kts 127°
2026-04-24 13:21 -2.58224 140.52351 300 ft 36 kts 126°
2026-04-24 13:21 -2.58348 140.52517 297 ft 26 kts 127°
2026-04-24 13:22 -2.58429 140.52626 299 ft 10 kts 126°
2026-04-24 13:22 -2.58421 140.52679 298 ft 9 kts 42°
2026-04-24 13:22 -2.58363 140.52724 298 ft 9 kts 38°
2026-04-24 13:22 -2.58308 140.52727 299 ft 9 kts 321°
2026-04-24 13:23 -2.58263 140.52666 298 ft 12 kts 306°
2026-04-24 13:23 -2.58207 140.52591 298 ft 15 kts 307°
2026-04-24 13:23 -2.58140 140.52502 298 ft 17 kts 307°
2026-04-24 13:23 -2.58062 140.52397 299 ft 20 kts 307°
2026-04-24 13:24 -2.57973 140.52278 300 ft 22 kts 307°
2026-04-24 13:24 -2.57875 140.52147 298 ft 25 kts 307°
2026-04-24 13:24 -2.57776 140.52014 300 ft 23 kts 307°
2026-04-24 13:24 -2.57675 140.51880 299 ft 25 kts 307°
2026-04-24 13:25 -2.57579 140.51752 300 ft 21 kts 307°
2026-04-24 13:25 -2.57487 140.51630 300 ft 21 kts 307°
2026-04-24 13:25 -2.57397 140.51510 298 ft 23 kts 307°
2026-04-24 13:25 -2.57315 140.51399 300 ft 15 kts 307°
2026-04-24 13:26 -2.57247 140.51308 298 ft 16 kts 306°
2026-04-24 13:26 -2.57187 140.51226 301 ft 13 kts 306°
2026-04-24 13:26 -2.57142 140.51173 299 ft 5 kts 335°
2026-04-24 13:26 -2.57109 140.51191 299 ft 5 kts 36°
2026-04-24 13:27 -2.57088 140.51206 298 ft 2 kts 36°
2026-04-24 13:27 -2.57078 140.51213 298 ft 1 kts 36°
2026-04-24 13:27 -2.57076 140.51215 301 ft 0 kts 36°